When you browse on this site, cookies collect data to enhance your experience and personalize the content and advertising you see.
Visit our Privacy Policy to learn more. By continuing to use the site, you agree to this use of cookies and data.
  • In Denmark
  • List of Countries
  • For 7 days
  • Water Temperature
  • Satellite Maps
  • Weather Map
  • Weather Widgets
  • user-avatar
    Login

    Hourly Weather Dubki

    Today, 17 November, Saturday

    Time Temperature Precipitation Wind Pressure Humidity
    00:00 -5°C° 0 mm 2 mps 770 mmHg 34%
    01:00 -5°C° 0 mm 2 mps 770 mmHg 34%
    02:00 -5°C° 0 mm 2 mps 770 mmHg 33%
    03:00 -3°C° 0 mm 1 mps 770 mmHg 32%
    04:00 -3°C° 0 mm 1 mps 769 mmHg 32%
    05:00 -3°C° 0 mm 1 mps 769 mmHg 31%
    06:00 -3°C° 0 mm 1 mps 769 mmHg 31%
    07:00 -3°C° 0 mm 1 mps 768 mmHg 29%
    08:00 -2°C° 0 mm 1 mps 768 mmHg 27%
    09:00 -2°C° 0 mm 1 mps 768 mmHg 25%
    10:00 0°C° 0 mm 1 mps 767 mmHg 23%
    11:00 +1°C° 0 mm 1 mps 767 mmHg 21%
    12:00 +2°C° 0 mm 1 mps 767 mmHg 18%
    13:00 +2°C° 0 mm 1 mps 766 mmHg 20%
    14:00 +2°C° 0 mm 1 mps 765 mmHg 21%
    15:00 +2°C° 0 mm 1 mps 765 mmHg 22%
    16:00 -1°C° 0 mm 2 mps 764 mmHg 23%
    17:00 -2°C° 0 mm 2 mps 764 mmHg 24%
    18:00 -3°C° 0 mm 2 mps 764 mmHg 25%
    19:00 -3°C° 0 mm 2 mps 763 mmHg 25%
    20:00 -3°C° 0 mm 2 mps 763 mmHg 26%
    21:00 -3°C° 0 mm 2 mps 762 mmHg 26%
    22:00 -3°C° 0 mm 2 mps 762 mmHg 26%
    23:00 -3°C° 0 mm 2 mps 761 mmHg 26%

    Tomorrow, 18 November, Sunday

    Time Temperature Precipitation Wind Pressure Humidity
    00:00 -3°C° 0 mm 2 mps 761 mmHg 26%
    01:00 -4°C° 0 mm 3 mps 760 mmHg 26%
    02:00 -5°C° 0 mm 3 mps 760 mmHg 27%
    03:00 -5°C° 0 mm 3 mps 759 mmHg 27%
    04:00 -5°C° 0 mm 3 mps 759 mmHg 27%
    05:00 -5°C° 0 mm 3 mps 759 mmHg 27%
    06:00 -5°C° 0 mm 3 mps 759 mmHg 27%
    07:00 -5°C° 0 mm 3 mps 758 mmHg 26%
    08:00 -4°C° 0 mm 3 mps 758 mmHg 25%
    09:00 -4°C° 0 mm 3 mps 758 mmHg 24%
    10:00 -2°C° 0 mm 3 mps 758 mmHg 23%
    11:00 -1°C° 0 mm 3 mps 758 mmHg 21%
    12:00 0°C° 0 mm 3 mps 758 mmHg 20%
    13:00 +1°C° 0 mm 2 mps 758 mmHg 22%
    14:00 +1°C° 0 mm 2 mps 758 mmHg 24%
    15:00 +1°C° 0 mm 2 mps 758 mmHg 26%
    16:00 -1°C° 0 mm 2 mps 758 mmHg 28%
    17:00 -2°C° 0 mm 2 mps 758 mmHg 31%
    18:00 -3°C° 0 mm 2 mps 758 mmHg 33%
    19:00 -3°C° 0 mm 2 mps 758 mmHg 34%
    20:00 -3°C° 0 mm 2 mps 758 mmHg 35%
    21:00 -1°C° 0 mm 1 mps 758 mmHg 36%
    22:00 -1°C° 0 mm 1 mps 759 mmHg 37%
    23:00 -1°C° 0 mm 1 mps 759 mmHg 38%

    Day after tomorrow, 19 November, Monday

    Time Temperature Precipitation Wind Pressure Humidity
    00:00 -1°C° 0 mm 1 mps 759 mmHg 39%
    01:00 -2°C° 0 mm 1 mps 759 mmHg 40%
    02:00 -2°C° 0 mm 1 mps 759 mmHg 40%
    03:00 -3°C° 0 mm 0 mps 760 mmHg 41%
    04:00 -3°C° 0 mm 0 mps 760 mmHg 42%
    05:00 -3°C° 0 mm 0 mps 760 mmHg 42%
    06:00 -3°C° 0 mm 0 mps 760 mmHg 43%
    07:00 -3°C° 0 mm 0 mps 760 mmHg 42%
    08:00 -2°C° 0 mm 0 mps 761 mmHg 40%
    09:00 -2°C° 0 mm 0 mps 761 mmHg 39%
    10:00 -1°C° 0 mm 0 mps 761 mmHg 37%
    11:00 0°C° 0 mm 0 mps 762 mmHg 34%
    12:00 +1°C° 0 mm 0 mps 762 mmHg 32%
    13:00 +1°C° 0 mm 0 mps 762 mmHg 33%
    14:00 +1°C° 0 mm 0 mps 762 mmHg 35%
    15:00 0°C° 0 mm 0 mps 762 mmHg 36%
    16:00 +1°C° 0 mm 1 mps 762 mmHg 38%
    17:00 0°C° 0 mm 1 mps 762 mmHg 39%
    18:00 -1°C° 0 mm 1 mps 763 mmHg 41%
    19:00 -1°C° 0 mm 1 mps 763 mmHg 41%
    20:00 -1°C° 0 mm 1 mps 763 mmHg 41%
    21:00 -1°C° 0 mm 1 mps 763 mmHg 41%
    22:00 -1°C° 0 mm 1 mps 763 mmHg 41%
    23:00 -1°C° 0 mm 1 mps 763 mmHg 41%

    20 November, Tuesday

    Time Temperature Precipitation Wind Pressure Humidity
    00:00 -1°C° 0 mm 1 mps 763 mmHg 41%
    01:00 -1°C° 0 mm 1 mps 763 mmHg 41%
    02:00 -2°C° 0 mm 1 mps 763 mmHg 41%
    03:00 -2°C° 0 mm 1 mps 763 mmHg 41%
    04:00 -2°C° 0 mm 1 mps 763 mmHg 41%
    05:00 -2°C° 0 mm 1 mps 763 mmHg 41%
    06:00 -4°C° 0 mm 2 mps 763 mmHg 40%
    07:00 -4°C° 0 mm 2 mps 763 mmHg 39%
    08:00 -3°C° 0 mm 2 mps 763 mmHg 37%
    09:00 -3°C° 0 mm 2 mps 763 mmHg 36%
    10:00 -2°C° 0 mm 2 mps 762 mmHg 33%
    11:00 -2°C° 0 mm 2 mps 762 mmHg 31%
    12:00 -1°C° 0 mm 2 mps 762 mmHg 28%
    13:00 -1°C° 0 mm 2 mps 761 mmHg 29%
    14:00 -1°C° 0 mm 3 mps 761 mmHg 30%
    15:00 -1°C° 0 mm 3 mps 760 mmHg 31%
    16:00 -1°C° 0 mm 3 mps 760 mmHg 32%
    17:00 -2°C° 0 mm 3 mps 759 mmHg 33%
    18:00 -2°C° 0 mm 3 mps 759 mmHg 34%
    19:00 -2°C° 0 mm 3 mps 759 mmHg 34%
    20:00 -2°C° 0 mm 3 mps 758 mmHg 35%
    21:00 -2°C° 0 mm 3 mps 758 mmHg 35%
    22:00 -2°C° 0.1 mm 3 mps 757 mmHg 41%
    23:00 -2°C° 0.1 mm 3 mps 757 mmHg 47%

    21 November, Wednesday

    Time Temperature Precipitation Wind Pressure Humidity
    00:00 -4°C° 0.1 mm 3 mps 756 mmHg 52%
    01:00 -4°C° 0.3 mm 3 mps 756 mmHg 61%
    02:00 -4°C° 0.3 mm 4 mps 755 mmHg 71%
    03:00 -4°C° 0.3 mm 4 mps 754 mmHg 80%
    04:00 -4°C° 0.1 mm 4 mps 754 mmHg 80%
    05:00 -4°C° 0.1 mm 4 mps 753 mmHg 81%
    06:00 -4°C° 0.1 mm 4 mps 752 mmHg 82%
    07:00 -4°C° 0.1 mm 4 mps 752 mmHg 79%
    08:00 -4°C° 0.1 mm 4 mps 751 mmHg 77%
    09:00 -4°C° 0.1 mm 4 mps 751 mmHg 75%
    10:00 -3°C° 0.1 mm 4 mps 751 mmHg 74%
    11:00 -3°C° 0.1 mm 4 mps 750 mmHg 74%
    12:00 -3°C° 0.1 mm 4 mps 750 mmHg 73%
    13:00 -3°C° 0.1 mm 4 mps 750 mmHg 75%
    14:00 -3°C° 0.1 mm 4 mps 750 mmHg 77%
    15:00 -4°C° 0.1 mm 4 mps 749 mmHg 79%
    16:00 -4°C° 0.1 mm 4 mps 750 mmHg 82%
    17:00 -4°C° 0.1 mm 4 mps 750 mmHg 84%
    18:00 -4°C° 0.1 mm 4 mps 750 mmHg 86%
    19:00 -4°C° 0.1 mm 4 mps 750 mmHg 86%
    20:00 -4°C° 0.1 mm 4 mps 750 mmHg 86%
    21:00 -4°C° 0.1 mm 4 mps 750 mmHg 86%
    22:00 -4°C° 0 mm 4 mps 750 mmHg 85%
    23:00 -5°C° 0 mm 4 mps 750 mmHg 84%

    22 November, Thursday

    Time Temperature Precipitation Wind Pressure Humidity
    00:00 -5°C° 0 mm 4 mps 750 mmHg 83%
    01:00 -5°C° 0 mm 4 mps 750 mmHg 84%
    02:00 -5°C° 0 mm 4 mps 750 mmHg 85%
    03:00 -5°C° 0 mm 4 mps 750 mmHg 86%
    04:00 -5°C° 0 mm 4 mps 750 mmHg 84%
    05:00 -5°C° 0 mm 4 mps 750 mmHg 83%
    06:00 -5°C° 0 mm 4 mps 750 mmHg 82%
    07:00 -4°C° 0 mm 4 mps 751 mmHg 80%
    08:00 -5°C° 0 mm 5 mps 751 mmHg 78%
    09:00 -5°C° 0 mm 5 mps 751 mmHg 77%
    10:00 -5°C° 0 mm 5 mps 751 mmHg 71%
    11:00 -5°C° 0 mm 5 mps 751 mmHg 65%
    12:00 -5°C° 0 mm 5 mps 751 mmHg 59%
    13:00 -5°C° 0 mm 5 mps 751 mmHg 60%
    14:00 -4°C° 0 mm 4 mps 751 mmHg 62%
    15:00 -5°C° 0 mm 4 mps 751 mmHg 63%
    16:00 -5°C° 0 mm 4 mps 751 mmHg 67%
    17:00 -7°C° 0 mm 4 mps 751 mmHg 71%
    18:00 -7°C° 0 mm 4 mps 752 mmHg 75%
    19:00 -7°C° 0 mm 4 mps 751 mmHg 78%
    20:00 -8°C° 0 mm 4 mps 751 mmHg 80%
    21:00 -8°C° 0 mm 4 mps 751 mmHg 82%
    22:00 -7°C° 0 mm 5 mps 751 mmHg 82%
    23:00 -7°C° 0 mm 5 mps 751 mmHg 82%
    Show more